This is the latest recevied weather packets stored in our database for station/object EB1HRW. If no packets are shown the sender has not sent any weather packets the latest 10 day(s).
| Time | Temp. | Humidity | Pressure | Rain* | Wind** | Luminosity | Snow |
|---|---|---|---|---|---|---|---|
| 1777716059 | 12.78° C | 76% | 1015.7 hPa | 2.54 mm | - | - | - |
| 1777715160 | 13.33° C | 76% | 1015.7 hPa | 2.54 mm | - | - | - |
| 1777714260 | 13.89° C | 76% | 1015.7 hPa | 0.25 mm | - | - | - |
| 1777713360 | 13.89° C | 75% | 1015.4 hPa | 0 mm | - | - | - |
| 1777712459 | 13.89° C | 76% | 1015.2 hPa | 0 mm | - | - | - |
| 1777710660 | 13.33° C | 76% | 1015.1 hPa | 0 mm | - | - | - |
| 1777709759 | 13.33° C | 76% | 1015.1 hPa | 0 mm | - | - | - |
| 1777708860 | 13.33° C | 76% | 1015.2 hPa | 0 mm | - | - | - |
| 1777707960 | 13.33° C | 76% | 1015.2 hPa | 0 mm | - | - | - |
| 1777707060 | 13.33° C | 76% | 1015.1 hPa | 0 mm | - | - | - |
| 1777706159 | 12.78° C | 77% | 1015 hPa | 0 mm | - | - | - |
| 1777705260 | 12.22° C | 77% | 1015.1 hPa | 0 mm | - | - | - |
| 1777704361 | 12.22° C | 77% | 1015.2 hPa | 0 mm | - | - | - |
| 1777698959 | 12.22° C | 80% | 1014.8 hPa | 0 mm | - | - | - |
| 1777698060 | 11.67° C | 77% | 1015 hPa | 0 mm | - | - | - |
| 1777697159 | 12.22° C | 76% | 1014.9 hPa | 0 mm | - | - | - |
| 1777696260 | 12.22° C | 76% | 1014.9 hPa | 0 mm | - | - | - |
| 1777695361 | 12.22° C | 76% | 1015.1 hPa | 0 mm | - | - | - |
| 1777694459 | 12.22° C | 76% | 1015.2 hPa | 0 mm | - | - | - |
| 1777693560 | 12.22° C | 76% | 1015.3 hPa | 0 mm | - | - | - |
| 1777692659 | 12.22° C | 76% | 1015.4 hPa | 0 mm | - | - | - |
| 1777691759 | 12.22° C | 76% | 1015.4 hPa | 0 mm | - | - | - |
| 1777690860 | 12.22° C | 76% | 1015.4 hPa | 0 mm | - | - | - |
| 1777689959 | 12.22° C | 76% | 1015.5 hPa | 0 mm | - | - | - |
| 1777689059 | 12.22° C | 75% | 1015.7 hPa | 0 mm | - | - | - |
* Rain latest hour (hover to see other rain measurements)
** Current wind speed in m/s (hover to see current wind gust speed)